DW6722 Weather Reports


time (UTC)temp
F
wind
direction
speed
knots
gust
knots
rain 1hr
in
rain 24hr
in
rain mn
in
humidity
%
barometer
mb
20260505194559 52 337 10.4 14.8 0.00 0.02 0.02 74 1010.0
20260505194059 52 351 9.6 16.5 0.00 0.02 0.02 74 1009.9
20260505193558 52 360 12.2 16.5 0.00 0.02 0.02 73 1009.8
20260505193059 52 355 10.4 17.4 0.00 0.02 0.02 74 1009.8
20260505192600 52 351 12.2 17.4 0.00 0.02 0.02 73 1009.7
20260505192100 53 320 10.4 15.6 0.00 0.02 0.02 74 1009.7
20260505191607 53 328 11.3 17.4 0.00 0.02 0.02 74 1009.7
20260505191101 53 351 11.3 19.1 0.00 0.02 0.02 73 1009.6
20260505190558 53 352 13.0 19.1 0.00 0.02 0.02 73 1009.5
20260505190104 53 337 13.0 17.4 0.00 0.02 0.02 73 1009.4
20260505185557 53 1 11.3 18.2 0.00 0.02 0.02 73 1009.4
20260505185057 53 327 12.2 17.4 0.00 0.02 0.02 73 1009.4
20260505184602 53 357 10.4 15.6 0.00 0.02 0.02 73 1009.4
20260505184155 53 347 10.4 16.5 0.00 0.02 0.02 73 1009.3
20260505183555 53 347 13.0 17.4 0.00 0.02 0.02 72 1009.3
20260505183119 54 326 12.2 16.5 0.00 0.02 0.02 71 1009.3
20260505182555 54 338 9.6 17.4 0.00 0.02 0.02 72 1009.3
20260505182056 54 338 13.0 18.2 0.00 0.02 0.02 71 1009.3
20260505181555 54 352 13.9 18.2 0.00 0.02 0.02 70 1009.2
20260505181059 54 358 13.0 17.4 0.00 0.02 0.02 70 1009.2
20260505180554 54 342 13.0 17.4 0.00 0.02 0.02 70 1009.1
20260505180054 54 341 12.2 18.2 0.00 0.02 0.02 71 1009.1
20260505175554 54 330 13.9 20.0 0.00 0.02 0.02 69 1009.1
20260505175054 54 340 15.6 20.0 0.00 0.02 0.02 70 1009.1
20260505174553 54 347 15.6 20.0 0.00 0.02 0.02 69 1009.0
20260505174054 54 345 13.0 19.1 0.00 0.02 0.02 70 1009.1
20260505173554 55 330 14.8 19.1 0.00 0.02 0.02 69 1009.1
20260505173057 55 337 13.0 18.2 0.00 0.02 0.02 69 1009.1
20260505172554 55 326 11.3 19.1 0.00 0.02 0.02 70 1009.1
20260505172052 55 340 13.9 19.1 0.00 0.02 0.02 69 1009.1
20260505171559 55 359 14.8 19.1 0.00 0.02 0.02 69 1009.1
20260505171051 55 352 15.6 19.1 0.00 0.02 0.02 70 1009.1
20260505170550 55 354 13.0 17.4 0.00 0.02 0.02 70 1009.2
20260505170050 55 326 10.4 16.5 0.00 0.02 0.02 70 1009.2
20260505165553 56 328 13.9 16.5 0.00 0.02 0.02 69 1009.2
20260505165049 56 1 12.2 15.6 0.00 0.02 0.02 69 1009.2
20260505164550 56 350 12.2 15.6 0.00 0.02 0.02 69 1009.3
20260505164048 56 358 12.2 15.6 0.00 0.02 0.02 69 1009.3
20260505163547 56 345 9.6 13.9 0.00 0.02 0.02 71 1009.3
20260505163047 56 341 9.6 14.8 0.00 0.02 0.02 70 1009.4
20260505162548 55 6 11.3 14.8 0.00 0.02 0.02 71 1009.3
20260505162046 55 343 10.4 13.9 0.00 0.02 0.02 72 1009.3
20260505161558 55 11 3.5 7.8 0.00 0.02 0.02 75 1009.4
20260505161046 55 11 4.3 10.4 0.00 0.02 0.02 74 1009.5
20260505160545 56 41 7.0 10.4 0.00 0.02 0.02 74 1009.4
20260505153040 55 46 4.3 8.7 0.00 0.02 0.02 76 1009.7
20260505152540 55 37 6.1 8.7 0.00 0.02 0.02 75 1009.7
20260505152039 55 355 5.2 9.6 0.00 0.02 0.02 75 1009.7
20260505151540 55 40 5.2 9.6 0.00 0.02 0.02 75 1009.7
20260505151039 54 30 5.2 11.3 0.00 0.02 0.02 77 1009.8
20260505150539 54 26 7.0 11.3 0.00 0.02 0.02 76 1009.8
20260505140532 53 38 7.0 11.3 0.00 0.02 0.02 78 1010.2
20260505125027 52 1 7.0 13.0 0.00 0.02 0.02 80 1010.7
20260505124525 52 27 9.6 13.0 0.00 0.02 0.02 80 1010.7
20260505124024 52 25 7.8 12.2 0.00 0.02 0.02 80 1010.8
20260505123525 52 16 7.0 10.4 0.00 0.02 0.02 81 1010.8
20260505123025 52 27 7.0 10.4 0.00 0.02 0.02 80 1010.8
20260505122524 52 30 6.1 11.3 0.00 0.02 0.02 81 1010.8
20260505122024 52 27 8.7 12.2 0.00 0.02 0.02 80 1010.8
20260505121529 52 35 7.0 11.3 0.00 0.02 0.02 82 1010.8
20260505121023 52 17 7.8 11.3 0.00 0.02 0.02 81 1010.9
20260505120524 52 34 7.0 10.4 0.00 0.02 0.02 82 1010.9
20260505120051 52 28 6.1 11.3 0.00 0.02 0.02 81 1010.8
20260505115525 52 26 7.8 11.3 0.00 0.02 0.02 82 1010.8
20260505115022 52 25 8.7 11.3 0.00 0.02 0.02 81 1010.8
20260505114522 52 27 8.7 11.3 0.00 0.02 0.02 81 1010.9
20260505114021 52 34 7.0 12.2 0.00 0.02 0.02 82 1010.9
20260505113520 51 27 7.0 13.0 0.00 0.02 0.02 82 1011.0
20260505113020 51 22 9.6 13.0 0.00 0.02 0.02 81 1010.9
20260505112523 51 20 8.7 12.2 0.00 0.02 0.02 82 1011.0
20260505112019 51 33 9.6 12.2 0.00 0.02 0.02 82 1011.0
20260505111520 51 23 8.7 12.2 0.00 0.02 0.02 81 1011.1
20260505111019 51 39 6.1 13.0 0.00 0.02 0.02 83 1011.1
20260505110518 51 30 9.6 13.9 0.00 0.02 0.02 81 1011.0
20260505102019 51 23 7.0 13.0 0.00 0.02 0.02 83 1011.3
20260505101522 50 12 9.6 13.0 0.00 0.02 0.02 82 1011.4
20260505101016 51 30 10.4 14.8 0.00 0.02 0.02 82 1011.3
20260505100517 51 24 9.6 14.8 0.00 0.02 0.02 83 1011.3
20260505100022 50 11 10.4 16.5 0.00 0.02 0.02 82 1011.4
20260505095516 50 23 11.3 16.5 0.00 0.02 0.02 82 1011.4
20260505095019 50 5 8.7 15.6 0.00 0.02 0.02 83 1011.4
20260505094515 50 20 11.3 14.8 0.00 0.02 0.02 83 1011.5
20260505094014 50 13 9.6 13.9 0.00 0.02 0.02 84 1011.5
20260505093514 50 27 9.6 14.8 0.00 0.02 0.02 84 1011.5
20260505093014 50 48 8.7 14.8 0.00 0.02 0.02 85 1011.5
20260505092514 50 357 8.7 12.2 0.00 0.02 0.02 84 1011.5
20260505092014 50 20 9.6 14.8 0.00 0.02 0.02 85 1011.5
20260505091523 50 8 11.3 13.9 0.00 0.02 0.02 85 1011.5
20260505091013 50 32 7.0 12.2 0.00 0.02 0.02 85 1011.7
20260505090513 49 10 7.8 13.9 0.00 0.02 0.02 85 1011.7
20260505090029 49 19 8.7 13.9 0.00 0.02 0.02 85 1011.7
20260505085519 50 24 6.1 11.3 0.00 0.02 0.02 86 1011.8
20260505085012 49 16 7.0 12.2 0.00 0.02 0.02 86 1011.8
20260505084512 49 14 7.8 12.2 0.00 0.02 0.02 86 1011.7
20260505084015 49 12 6.1 13.0 0.00 0.02 0.02 86 1011.7
20260505083512 49 7 8.7 13.0 0.00 0.02 0.02 86 1011.6
20260505083014 49 14 10.4 13.0 0.00 0.02 0.02 86 1011.7
20260505082510 49 30 7.0 13.0 0.00 0.02 0.02 86 1011.6
20260505082011 49 16 8.7 13.0 0.00 0.02 0.02 86 1011.6
20260505081513 49 20 7.8 13.9 0.00 0.02 0.02 86 1011.6
20260505081011 49 25 8.7 13.0 0.00 0.02 0.02 86 1011.6
20260505080509 49 17 9.6 14.8 0.00 0.02 0.02 85 1011.5
20260505080010 49 8 11.3 14.8 0.00 0.02 0.02 86 1011.5
20260505075509 49 15 10.4 12.2 0.00 0.02 0.02 86 1011.5
20260505075007 49 11 7.8 13.9 0.00 0.02 0.02 86 1011.5
20260505074507 49 13 9.6 14.8 0.00 0.02 0.02 86 1011.4
20260505074006 49 17 9.6 14.8 0.00 0.02 0.02 86 1011.4
20260505073505 49 358 11.3 13.9 0.00 0.02 0.02 86 1011.5
20260505073004 49 4 10.4 13.9 0.00 0.02 0.02 87 1011.5
20260505072505 49 341 7.8 12.2 0.00 0.02 0.02 87 1011.6
20260505072002 49 13 7.8 12.2 0.00 0.02 0.02 88 1011.5
20260505071508 49 2 8.7 13.9 0.00 0.02 0.02 88 1011.4
20260505071003 49 19 8.7 13.0 0.00 0.02 0.02 88 1011.4
20260505070502 49 4 10.4 15.6 0.00 0.02 0.02 89 1011.4
20260505070104 49 30 9.6 15.6 0.00 0.02 0.02 89 1011.5
20260505065559 49 9 9.6 14.8 0.00 0.02 0.02 89 1011.5
20260505065058 49 21 8.7 13.9 0.00 0.02 0.02 90 1011.5
20260505064659 49 7 8.7 13.0 0.00 0.02 0.02 90 1011.6
20260505064055 48 3 10.4 13.0 0.00 0.02 0.02 90 1011.7
20260505063555 48 6 8.7 12.2 0.00 0.02 0.02 90 1011.6
20260505063054 48 5 8.7 11.3 0.00 0.02 0.02 90 1011.6
20260505062554 49 26 7.8 11.3 0.00 0.02 0.02 90 1011.6
20260505062053 49 20 7.8 12.2 0.00 0.02 0.02 90 1011.7
20260505061557 49 4 7.0 10.4 0.00 0.02 0.02 90 1011.7
20260505061053 49 356 6.1 10.4 0.00 0.02 0.02 90 1011.7
20260505060551 49 4 7.8 10.4 0.00 0.02 0.02 89 1011.8
20260505060051 49 17 6.1 10.4 0.00 0.02 0.02 89 1011.8
20260505055550 49 1 7.8 12.2 0.00 0.02 0.02 89 1011.7
20260505055050 49 337 8.7 12.2 0.00 0.02 0.02 89 1011.9
20260505054609 49 2 7.0 13.0 0.00 0.02 0.02 89 1011.9
20260505054051 49 10 7.8 13.0 0.00 0.02 0.02 89 1011.9
20260505053550 49 345 7.8 11.3 0.00 0.02 0.02 88 1011.9
20260505053100 49 13 8.7 12.2 0.00 0.02 0.02 88 1011.8
20260505052547 49 12 8.7 13.0 0.00 0.02 0.02 88 1011.9
20260505052047 49 357 8.7 13.0 0.00 0.02 0.02 88 1011.8
20260505051546 50 6 9.6 13.0 0.00 0.02 0.02 88 1011.7
20260505051046 50 4 9.6 12.2 0.00 0.02 0.02 87 1011.7
20260505050544 50 13 7.8 11.3 0.00 0.02 0.02 87 1011.6
20260505041540 51 351 9.6 13.9 0.00 0.02 0.02 86 1011.3
20260505041040 50 8 9.6 14.8 0.00 0.02 0.02 87 1011.2
20260505040542 51 354 11.3 14.8 0.00 0.02 0.02 86 1011.3
20260505040040 50 347 9.6 13.9 0.00 0.02 0.02 86 1011.3
20260505035539 51 354 9.6 15.6 0.00 0.02 0.02 86 1011.3
20260505035040 50 358 12.2 15.6 0.00 0.02 0.02 86 1011.2
20260505034536 50 343 12.2 15.6 0.00 0.02 0.02 86 1011.3
20260505034036 51 359 11.3 15.6 0.00 0.02 0.02 86 1011.4
20260505033536 51 18 9.6 13.0 0.00 0.02 0.02 86 1011.3
20260505033034 51 333 9.6 13.9 0.00 0.02 0.02 86 1011.4
20260505032534 51 5 11.3 14.8 0.00 0.02 0.02 86 1011.5
20260505032033 51 2 10.4 14.8 0.00 0.02 0.02 86 1011.6
20260505031543 51 342 9.6 13.9 0.00 0.02 0.02 86 1011.6
20260505031032 51 342 10.4 16.5 0.00 0.02 0.02 86 1011.6
20260505030532 51 9 10.4 16.5 0.00 0.02 0.02 86 1011.6
20260505030031 51 349 11.3 15.6 0.00 0.02 0.02 85 1011.6
20260505025530 51 4 9.6 16.5 0.00 0.02 0.02 86 1011.6
20260505025030 51 2 11.3 16.5 0.00 0.02 0.02 85 1011.5
20260505024534 51 357 10.4 15.6 0.00 0.02 0.02 85 1011.5
20260505024029 51 354 11.3 17.4 0.00 0.02 0.02 85 1011.5
20260505023529 51 353 13.0 17.4 0.00 0.02 0.02 85 1011.6
20260505023030 51 349 10.4 16.5 0.00 0.02 0.02 86 1011.5
20260505022527 51 345 10.4 16.5 0.00 0.02 0.02 86 1011.5
20260505022027 51 330 11.3 14.8 0.00 0.02 0.02 86 1011.5
20260505021528 51 345 9.6 14.8 0.00 0.02 0.02 86 1011.6
20260505021026 51 342 10.4 14.8 0.00 0.02 0.02 85 1011.5
20260505020526 51 352 10.4 14.8 0.00 0.02 0.02 85 1011.5
20260505020031 52 337 10.4 13.9 0.00 0.02 0.02 85 1011.6
20260505015524 52 340 9.6 14.8 0.00 0.02 0.02 85 1011.5
20260505015024 52 328 10.4 13.0 0.00 0.02 0.02 85 1011.6
20260505014528 52 340 9.6 15.6 0.00 0.02 0.02 85 1011.6
20260505014022 52 360 11.3 15.6 0.00 0.02 0.02 85 1011.6
20260505013521 52 7 10.4 18.2 0.00 0.02 0.02 85 1011.6
20260505013024 52 1 13.0 18.2 0.00 0.02 0.02 85 1011.7
20260505012520 52 356 12.2 18.2 0.00 0.02 0.02 85 1011.7
20260505012019 52 329 13.0 0.0 0.00 0.00 0.02 85 1011.7
20260505011529 52 340 12.2 19.1 0.00 0.02 0.02 85 1011.8
20260505011018 52 355 13.9 19.1 0.00 0.02 0.02 85 1011.8
20260505010516 52 1 13.0 16.5 0.00 0.02 0.02 85 1011.8
20260505010016 52 8 12.2 17.4 0.00 0.02 0.02 85 1011.8
20260505005515 53 354 13.0 17.4 0.00 0.02 0.02 86 1011.8
20260505005015 53 352 11.3 19.1 0.00 0.02 0.02 86 1011.9
20260505004533 53 358 13.9 20.0 0.00 0.02 0.02 86 1011.9
20260505004013 53 340 13.9 18.2 0.00 0.02 0.02 86 1011.9
20260505003511 53 342 13.9 20.0 0.00 0.02 0.02 86 1011.9
20260505003011 53 352 12.2 20.0 0.00 0.02 0.02 86 1012.0
20260505002514 53 333 13.9 20.0 0.00 0.02 0.02 86 1011.9
20260505002017 53 351 13.9 19.1 0.00 0.02 0.02 86 1011.9
20260505001509 53 353 12.2 18.2 0.01 0.02 0.02 86 1012.0
20260505001014 53 322 12.2 18.2 0.02 0.02 0.02 87 1012.0
20260505000508 53 347 14.8 18.2 0.02 0.02 0.02 87 1012.0
20260505000009 53 326 13.0 18.2 0.02 0.02 0.02 87 1012.1
20260504235508 53 351 13.9 18.2 0.02 0.02 0.02 87 1012.2
20260504235006 53 327 13.0 15.6 0.02 0.02 0.02 87 1012.2
20260504234505 53 325 10.4 18.2 0.02 0.02 0.02 88 1012.2
20260504234003 53 347 13.9 18.2 0.02 0.02 0.02 87 1012.2
20260504233503 53 340 13.9 18.2 0.02 0.02 0.02 87 1012.2
20260504233002 53 329 12.2 17.4 0.02 0.02 0.02 87 1012.3
20260504232501 53 354 13.0 17.4 0.02 0.02 0.02 87 1012.3
20260504232000 53 342 12.2 17.4 0.02 0.02 0.02 87 1012.3
20260504231602 54 345 13.9 17.4 0.01 0.02 0.01 86 1012.3
20260504231058 54 353 12.2 15.6 0.00 0.01 0.00 86 1012.3
20260504230558 54 338 12.2 16.5 0.00 0.01 0.00 86 1012.3
20260504230106 54 338 12.2 16.5 0.00 0.01 0.00 86 1012.3
20260504225556 54 339 11.3 14.8 0.00 0.01 0.00 86 1012.3
20260504225055 54 333 10.4 15.6 0.00 0.01 0.00 86 1012.4
20260504224554 54 326 12.2 15.6 0.00 0.01 0.00 86 1012.4
20260504224053 54 339 9.6 15.6 0.00 0.01 0.00 86 1012.5
20260504223553 54 330 11.3 15.6 0.00 0.01 0.00 86 1012.4
20260504223053 54 337 12.2 15.6 0.00 0.01 0.00 86 1012.4
20260504222552 54 1 9.6 15.6 0.00 0.01 0.00 86 1012.5
20260504222050 55 320 12.2 15.6 0.00 0.01 0.00 85 1012.5
20260504221559 55 319 10.4 14.8 0.00 0.01 0.00 85 1012.5
20260504221048 55 354 11.3 14.8 0.00 0.01 0.00 85 1012.6
20260504220547 55 349 10.4 14.8 0.00 0.01 0.00 85 1012.6
20260504220046 55 347 10.4 14.8 0.00 0.01 0.00 85 1012.6
20260504215549 55 336 9.6 13.9 0.00 0.01 0.01 85 1012.7
20260504215049 55 352 9.6 13.9 0.00 0.01 0.01 85 1012.7
20260504214545 55 334 10.4 17.4 0.00 0.01 0.01 85 1012.8
20260504214044 55 342 10.4 17.4 0.00 0.01 0.01 85 1012.8
20260504213544 55 347 9.6 14.8 0.00 0.01 0.01 85 1012.8
20260504213045 55 333 11.3 13.9 0.00 0.01 0.01 85 1012.8
20260504212547 55 352 10.4 13.9 0.00 0.01 0.01 85 1012.9
20260504212046 55 330 10.4 16.5 0.00 0.01 0.01 85 1012.9
20260504211546 56 344 11.3 16.5 0.00 0.01 0.01 84 1012.9
20260504211042 56 352 9.6 15.6 0.00 0.01 0.01 84 1012.9
20260504210543 56 346 12.2 15.6 0.00 0.01 0.01 84 1012.9
20260504210041 56 351 10.4 15.6 0.00 0.01 0.01 84 1012.9
20260504205540 56 335 12.2 15.6 0.00 0.01 0.01 84 1012.8
20260504205039 56 351 11.3 15.6 0.00 0.01 0.01 84 1012.8
20260504204540 56 356 10.4 15.6 0.00 0.01 0.01 84 1012.8
20260504204038 56 340 9.6 14.8 0.00 0.01 0.01 84 1012.8
20260504203538 56 1 12.2 16.5 0.00 0.01 0.01 83 1012.8
20260504203037 56 352 9.6 16.5 0.00 0.01 0.01 84 1012.9
20260504202537 56 352 10.4 13.0 0.00 0.01 0.01 84 1012.8
20260504202037 56 349 9.6 13.0 0.00 0.01 0.01 84 1012.9
20260504201537 56 336 10.4 13.0 0.00 0.01 0.01 84 1012.8
20260504201036 57 4 9.6 14.8 0.00 0.01 0.01 84 1012.8
20260504200536 57 355 10.4 14.8 0.00 0.01 0.01 84 1012.8
20260504200036 57 344 9.6 13.0 0.00 0.01 0.01 84 1012.7
20260504195535 57 345 10.4 13.0 0.00 0.01 0.01 84 1012.7
20260504195035 57 335 10.4 13.9 0.00 0.01 0.01 83 1012.6